sat.trackr.live / text

‹ back to catalog

STARLINK-5917

NORAD 55942 · 2023-037AE

PAYLOAD ACTIVE UNKNOWN

§ Identity

Operator
Country
US
Launch date
2023-03-17
Launch site
AFWTR
Launch vehicle
Mass (kg)
RCS (m²)

Purposes: comms

External: N2YO · Heavens-Above · Gunter

§ Orbital elements

Epoch: 2026-05-25T03:02:42.196128Z

Period
96.11 min
Inclination
69.9997°
Eccentricity
0.0003393
Mean motion
14.98329884 rev/d
Perigee alt
569.7 km
Apogee alt
574.4 km
Semi-major
6,950.2 km
B*
3.4384e-5
RAAN
91.5753°
Arg perigee
261.8950°
Mean anomaly
98.1825°
Rev number
17,543

§ Raw data

STARLINK-59171 55942U 23037AE  26145.12687727  .00000317  00000+0  34384-4 0  99942 55942  69.9997  91.5753 0003393 261.8950  98.1825 14.98329884175434

JSON: /api/v1/satellites/55942 · /tle

For live sub-satellite position, see the globe view (requires WebGL).

§ Visibility from observer

Set your observer location to see the next 7 days of passes ≥ 10°. The values pass through the URL so the page stays shareable.

No JS? Fill the form by hand. The geolocation button needs JavaScript.